Regional Weather Roundup
Issued by NWS

Home | Current Version | Previous Version | Text Only | Print | Product List | Glossary Off
Versions: 1 2 3 4 5 6 7 8 9 10 11 12 13 14 15 16 17 18 19 20 21 22 23 24 25 26 27 28 29 30 31 32 33 34 35 36 37 38 39 40 41 42 43 44 45 46 47 48 49 50

000
ASUS43 KBIS 292120
RWRND

NORTH DAKOTA REGIONAL WEATHER ROUNDUP
NATIONAL WEATHER SERVICE BISMARCK ND
400 PM CDT TUE JUL 29 2014

NOTE: "FAIR" INDICATES FEW OR NO CLOUDS BELOW 12,000 FEET WITH NO
SIGNIFICANT WEATHER AND/OR OBSTRUCTIONS TO VISIBILITY.


NDZ001>003-009>011-017-292200-
NORTHWEST NORTH DAKOTA

CITY           SKY/WX    TMP DP  RH WIND       PRES   REMARKS
WILLISTON      SUNNY     85  48  27 N12       30.17S
MINOT          TSTM      73  60  63 N7        30.18R
MINOT AFB      LGT RAIN  71  65  81 NE10      30.16S
$$

NDZ018>021-031>035-040>046-292200-
SOUTHWEST NORTH DAKOTA

CITY           SKY/WX    TMP DP  RH WIND       PRES   REMARKS
BISMARCK       MOSUNNY   78  54  43 N6        30.17F
DICKINSON      MOSUNNY   82  51  34 NW7       30.16F
GARRISON         N/A     79  58  48 SE6       30.16F
HETTINGER ARPT MOSUNNY   82  49  31 VRB7      30.20F
$$

NDZ004>008-012>016-024-026-027-054-292200-
NORTHEAST NORTH DAKOTA

CITY           SKY/WX    TMP DP  RH WIND       PRES   REMARKS
GRAND FORKS    MOSUNNY   78  54  43 NE3       30.12F
GRND FRKS AFB  SUNNY     77  55  46 N8        30.14F
DEVILS LAKE    SUNNY     73  52  46 NW10      30.15F
$$

NDZ022-023-025-028>030-036>039-047>053-292200-
SOUTHEAST NORTH DAKOTA

CITY           SKY/WX    TMP DP  RH WIND       PRES   REMARKS
FARGO          PTSUNNY   80  53  39 N12       30.13S
JAMESTOWN      MOSUNNY   77  53  43 N7        30.16F
$$



USA.gov is the U.S. government's official web portal to all federal, state and local government web resources and services.